TimeMDT,TemperatureF,Dew PointF,Humidity,Sea Level PressureIn,VisibilityMPH,Wind Direction,Wind SpeedMPH,Gust SpeedMPH,PrecipitationIn,Events,Conditions,WindDirDegrees,DateUTC
12:15 AM,44.6,24.8,46,29.95,10.0,SW,3.5,-,N/A,,Overcast,220,2013-03-21 06:15:00
12:35 AM,44.6,23.0,43,29.95,10.0,SW,5.8,-,N/A,,Overcast,220,2013-03-21 06:35:00
12:55 AM,44.6,23.0,43,29.95,10.0,SW,8.1,-,N/A,,Overcast,230,2013-03-21 06:55:00
1:15 AM,44.6,21.2,39,29.94,10.0,SW,4.6,-,N/A,,Overcast,220,2013-03-21 07:15:00
1:35 AM,42.8,23.0,46,29.94,10.0,Calm,Calm,-,N/A,,Overcast,0,2013-03-21 07:35:00
1:55 AM,42.8,23.0,46,29.93,10.0,SW,3.5,-,N/A,,Overcast,220,2013-03-21 07:55:00
2:15 AM,42.8,23.0,46,29.92,10.0,SSW,4.6,-,N/A,,Overcast,210,2013-03-21 08:15:00
2:35 AM,42.8,23.0,46,29.92,10.0,South,4.6,-,N/A,,Overcast,170,2013-03-21 08:35:00
2:55 AM,42.8,24.8,49,29.91,10.0,Calm,Calm,-,N/A,,Overcast,0,2013-03-21 08:55:00
3:15 AM,44.6,24.8,46,29.90,10.0,Calm,Calm,-,N/A,,Overcast,0,2013-03-21 09:15:00
3:35 AM,44.6,24.8,46,29.89,10.0,Calm,Calm,-,N/A,,Overcast,0,2013-03-21 09:35:00
3:55 AM,42.8,24.8,49,29.88,10.0,Calm,Calm,-,N/A,,Overcast,0,2013-03-21 09:55:00
4:15 AM,42.8,23.0,46,29.87,10.0,Calm,Calm,-,N/A,,Overcast,0,2013-03-21 10:15:00
4:35 AM,41.0,24.8,53,29.86,10.0,East,4.6,-,N/A,,Overcast,100,2013-03-21 10:35:00
4:55 AM,41.0,24.8,53,29.85,10.0,East,4.6,-,N/A,,Overcast,100,2013-03-21 10:55:00
5:15 AM,39.2,24.8,56,29.84,10.0,East,6.9,-,N/A,,Mostly Cloudy,100,2013-03-21 11:15:00
5:35 AM,37.4,23.0,56,29.84,10.0,SE,6.9,-,N/A,,Scattered Clouds,130,2013-03-21 11:35:00
5:55 AM,37.4,23.0,56,29.84,10.0,SSE,5.8,-,N/A,,Scattered Clouds,150,2013-03-21 11:55:00
6:15 AM,37.4,23.0,56,29.84,10.0,SSE,4.6,-,N/A,,Mostly Cloudy,150,2013-03-21 12:15:00
6:35 AM,39.2,24.8,56,29.84,10.0,SE,4.6,-,N/A,,Overcast,140,2013-03-21 12:35:00
6:55 AM,39.2,24.8,56,29.84,10.0,SSW,4.6,-,N/A,,Mostly Cloudy,200,2013-03-21 12:55:00
7:15 AM,39.2,23.0,52,29.83,10.0,SSW,5.8,-,N/A,,Partly Cloudy,200,2013-03-21 13:15:00
7:35 AM,37.4,23.0,56,29.83,10.0,SW,6.9,-,N/A,,Clear,220,2013-03-21 13:35:00
7:55 AM,35.6,21.2,56,29.83,10.0,SSW,4.6,-,N/A,,Partly Cloudy,200,2013-03-21 13:55:00
8:15 AM,37.4,23.0,56,29.83,10.0,SSW,4.6,-,N/A,,Clear,200,2013-03-21 14:15:00
8:35 AM,37.4,24.8,60,29.83,10.0,SSW,5.8,-,N/A,,Clear,200,2013-03-21 14:35:00
8:55 AM,42.8,26.6,53,29.83,10.0,SSW,11.5,-,N/A,,Scattered Clouds,210,2013-03-21 14:55:00
9:15 AM,44.6,24.8,46,29.83,10.0,SW,8.1,-,N/A,,Overcast,220,2013-03-21 15:15:00
9:35 AM,44.6,26.6,49,29.82,10.0,West,12.7,23.0,N/A,,Overcast,260,2013-03-21 15:35:00
9:55 AM,46.4,28.4,50,29.82,10.0,West,16.1,-,N/A,,Mostly Cloudy,260,2013-03-21 15:55:00
10:15 AM,46.4,26.6,46,29.82,10.0,West,10.4,-,N/A,,Overcast,260,2013-03-21 16:15:00
10:35 AM,50.0,28.4,43,29.80,10.0,West,16.1,23.0,N/A,,Mostly Cloudy,280,2013-03-21 16:35:00
10:55 AM,51.8,26.6,38,29.79,10.0,West,18.4,26.5,N/A,,Mostly Cloudy,280,2013-03-21 16:55:00
11:15 AM,53.6,26.6,35,29.79,10.0,WNW,20.7,33.4,N/A,,Scattered Clouds,300,2013-03-21 17:15:00
11:35 AM,53.6,26.6,35,29.78,10.0,WNW,26.5,34.5,N/A,,Scattered Clouds,290,2013-03-21 17:35:00
11:55 AM,53.6,24.8,33,29.77,10.0,WNW,24.2,35.7,N/A,,Mostly Cloudy,300,2013-03-21 17:55:00
12:15 PM,57.2,23.0,27,29.76,10.0,West,24.2,32.2,N/A,,Mostly Cloudy,280,2013-03-21 18:15:00
12:35 PM,55.4,24.8,31,29.75,10.0,WNW,23.0,36.8,N/A,,Scattered Clouds,300,2013-03-21 18:35:00
12:55 PM,57.2,21.2,25,29.73,10.0,WNW,26.5,35.7,N/A,,Partly Cloudy,290,2013-03-21 18:55:00
1:15 PM,57.2,17.6,21,29.72,10.0,West,26.5,36.8,N/A,,Partly Cloudy,270,2013-03-21 19:15:00
1:35 PM,59.0,17.6,20,29.72,10.0,West,29.9,40.3,N/A,,Partly Cloudy,280,2013-03-21 19:35:00
1:55 PM,59.0,15.8,19,29.70,10.0,West,27.6,43.7,N/A,,Clear,270,2013-03-21 19:55:00
2:15 PM,59.0,12.2,16,29.69,10.0,West,26.5,49.5,N/A,,Clear,270,2013-03-21 20:15:00
2:35 PM,60.8,14.0,16,29.68,10.0,WNW,28.8,40.3,N/A,,Clear,290,2013-03-21 20:35:00
2:55 PM,60.8,12.2,15,29.67,10.0,West,33.4,43.7,N/A,,Clear,270,2013-03-21 20:55:00
3:15 PM,59.0,12.2,16,29.66,10.0,West,36.8,46.0,N/A,,Clear,280,2013-03-21 21:15:00
3:35 PM,57.2,12.2,17,29.67,10.0,West,33.4,47.2,N/A,,Clear,280,2013-03-21 21:35:00
3:55 PM,60.8,14.0,16,29.67,10.0,West,28.8,40.3,N/A,,Clear,280,2013-03-21 21:55:00
4:15 PM,59.0,12.2,16,29.67,10.0,West,29.9,41.4,N/A,,Clear,280,2013-03-21 22:15:00
4:35 PM,57.2,12.2,17,29.68,10.0,West,27.6,40.3,N/A,,Clear,280,2013-03-21 22:35:00
4:55 PM,57.2,12.2,17,29.69,10.0,WNW,26.5,35.7,N/A,,Clear,300,2013-03-21 22:55:00
5:15 PM,57.2,12.2,17,29.69,10.0,West,26.5,35.7,N/A,,Clear,280,2013-03-21 23:15:00
5:35 PM,57.2,12.2,17,29.70,10.0,WNW,27.6,34.5,N/A,,Clear,290,2013-03-21 23:35:00
5:55 PM,55.4,12.2,18,29.71,10.0,WNW,21.9,36.8,N/A,,Clear,300,2013-03-21 23:55:00
6:15 PM,55.4,10.4,17,29.72,10.0,WNW,25.3,33.4,N/A,,Clear,290,2013-03-22 00:15:00
6:35 PM,53.6,6.8,15,29.73,10.0,WNW,23.0,29.9,N/A,,Clear,300,2013-03-22 00:35:00
6:55 PM,51.8,5.0,15,29.74,10.0,WNW,23.0,28.8,N/A,,Clear,300,2013-03-22 00:55:00
7:15 PM,50.0,5.0,16,29.76,10.0,WNW,17.3,-,N/A,,Clear,290,2013-03-22 01:15:00
7:35 PM,48.2,5.0,17,29.77,10.0,WNW,15.0,19.6,N/A,,Clear,290,2013-03-22 01:35:00
7:55 PM,46.4,6.8,20,29.78,10.0,WNW,9.2,-,N/A,,Clear,290,2013-03-22 01:55:00
8:15 PM,46.4,12.2,25,29.79,10.0,West,13.8,19.6,N/A,,Clear,280,2013-03-22 02:15:00
8:55 PM,44.6,10.4,25,29.83,10.0,NNW,10.4,18.4,N/A,,Clear,330,2013-03-22 02:55:00
9:15 PM,46.4,12.2,25,29.83,10.0,WNW,11.5,20.7,N/A,,Clear,290,2013-03-22 03:15:00
9:35 PM,42.8,12.2,29,29.84,10.0,North,10.4,-,N/A,,Clear,360,2013-03-22 03:35:00
9:55 PM,39.2,15.8,39,29.85,10.0,North,9.2,-,N/A,,Clear,10,2013-03-22 03:55:00
10:15 PM,37.4,14.0,38,29.86,10.0,NNW,9.2,-,N/A,,Clear,330,2013-03-22 04:15:00
10:35 PM,33.8,12.2,41,29.85,10.0,North,8.1,-,N/A,,Clear,10,2013-03-22 04:35:00
10:55 PM,33.8,14.0,44,29.86,10.0,West,4.6,-,N/A,,Clear,270,2013-03-22 04:55:00
11:15 PM,35.6,15.8,44,29.86,10.0,South,5.8,-,N/A,,Clear,190,2013-03-22 05:15:00
11:35 PM,33.8,12.2,41,29.85,10.0,South,8.1,-,N/A,,Clear,180,2013-03-22 05:35:00
11:55 PM,32.0,12.2,44,29.85,10.0,South,4.6,-,N/A,,Clear,190,2013-03-22 05:55:00